| time (UTC) | temp F | wind direction | speed MPH | gust MPH | rain 1hr in | rain 24hr in | rain mn in | humidity % | barometer mb |
| 20260905094524 | 71 | 0 | 0.0 | 0.0 | 0.00 | 0.00 | 0.00 | 7 | 1010.5 |
| 20260905093024 | 71 | 0 | 0.0 | 0.0 | 0.00 | 0.00 | 0.00 | 7 | 1010.5 |
| 20260905090024 | 71 | 0 | 0.0 | 0.0 | 0.00 | 0.00 | 0.00 | 7 | 1010.4 |
| 20260905084524 | 71 | 0 | 0.0 | 0.0 | 0.00 | 0.00 | 0.00 | 7 | 1010.3 |
| 20260905083025 | 71 | 0 | 0.0 | 0.0 | 0.00 | 0.01 | 0.00 | 7 | 1010.3 |
| 20260905080024 | 72 | 0 | 0.0 | 0.0 | 0.00 | 0.10 | 0.00 | 7 | 1010.4 |
| 20260905074524 | 72 | 0 | 0.0 | 0.0 | 0.00 | 0.10 | 0.00 | 7 | 1010.5 |
| 20260905073024 | 71 | 0 | 0.0 | 0.0 | 0.00 | 0.10 | 0.00 | 7 | 1010.4 |
| 20260905070024 | 71 | 0 | 0.0 | 0.0 | 0.00 | 0.10 | 0.00 | 7 | 1010.6 |
| 20260905064524 | 71 | 0 | 0.0 | 0.0 | 0.00 | 0.10 | 0.00 | 7 | 1010.6 |
| 20260905063024 | 71 | 0 | 0.0 | 0.0 | 0.00 | 0.12 | 0.00 | 7 | 1010.7 |
| 20260905060024 | 71 | 0 | 0.0 | 0.0 | 0.00 | 0.13 | 0.00 | 7 | 1010.8 |
| 20260905053024 | 71 | 0 | 0.0 | 0.0 | 0.00 | 0.18 | 0.00 | 7 | 1011.2 |
| 20260905044525 | 71 | 0 | 0.0 | 0.0 | 0.00 | 0.18 | 0.00 | 8 | 1011.4 |
| 20260905043024 | 71 | 0 | 0.0 | 0.0 | 0.00 | 0.18 | 0.00 | 8 | 1011.5 |
| 20260905040025 | 72 | 0 | 0.0 | 0.0 | 0.00 | 0.18 | 0.00 | 8 | 1011.6 |
| 20260905034524 | 72 | 0 | 0.0 | 0.0 | 0.00 | 0.18 | 0.00 | 8 | 1011.6 |
| 20260905033024 | 72 | 0 | 0.0 | 0.0 | 0.00 | 0.18 | 0.00 | 8 | 1011.5 |
| 20260905024524 | 72 | 0 | 0.0 | 0.0 | 0.00 | 0.18 | 0.00 | 8 | 1011.4 |
| 20260905023024 | 73 | 0 | 0.0 | 0.0 | 0.00 | 0.18 | 0.00 | 8 | 1011.4 |
| 20260905013024 | 73 | 0 | 0.0 | 0.0 | 0.00 | 0.18 | 0.00 | 7 | 1011.6 |
| 20260905004525 | 76 | 0 | 0.0 | 0.0 | 0.00 | 0.18 | 0.00 | 7 | 1011.1 |
| 20260905003024 | 76 | 0 | 0.0 | 0.0 | 0.00 | 0.18 | 0.00 | 7 | 1011.0 |
| 20260905000024 | 78 | 0 | 0.0 | 0.0 | 0.00 | 0.18 | 0.18 | 7 | 1011.0 |
| 20260904234524 | 80 | 0 | 0.0 | 0.0 | 0.00 | 0.18 | 0.18 | 6 | 1011.0 |
| 20260904230024 | 83 | 0 | 0.0 | 0.0 | 0.00 | 0.18 | 0.18 | 5 | 1010.9 |
| 20260904224524 | 85 | 0 | 0.0 | 0.0 | 0.00 | 0.18 | 0.18 | 5 | 1011.1 |
| 20260904220024 | 87 | 0 | 0.0 | 0.0 | 0.00 | 0.18 | 0.18 | 5 | 1010.8 |
| 20260904214524 | 87 | 0 | 0.0 | 0.0 | 0.00 | 0.18 | 0.18 | 5 | 1010.7 |
| 20260904210024 | 90 | 248 | 1.0 | 3.0 | 0.00 | 0.18 | 0.18 | 4 | 1010.7 |
| 20260904204524 | 90 | 0 | 0.0 | 0.0 | 0.00 | 0.18 | 0.18 | 4 | 1010.7 |
| 20260904203024 | 90 | 0 | 0.0 | 0.0 | 0.00 | 0.18 | 0.18 | 5 | 1010.9 |
| 20260904200024 | 91 | 0 | 0.0 | 0.0 | 0.00 | 0.18 | 0.18 | 5 | 1011.3 |
| 20260904193025 | 87 | 287 | 0.0 | 5.0 | 0.00 | 0.18 | 0.18 | 5 | 1011.5 |
| 20260904190025 | 90 | 146 | 2.0 | 6.0 | 0.00 | 0.18 | 0.18 | 5 | 1011.8 |
| 20260904184525 | 88 | 261 | 2.0 | 8.0 | 0.00 | 0.18 | 0.18 | 5 | 1011.8 |
| 20260904183025 | 88 | 245 | 2.0 | 7.0 | 0.00 | 0.18 | 0.18 | 5 | 1011.9 |
| 20260904180025 | 89 | 0 | 0.0 | 0.0 | 0.00 | 0.18 | 0.18 | 5 | 1011.8 |
| 20260904174525 | 87 | 0 | 0.0 | 0.0 | 0.00 | 0.18 | 0.18 | 5 | 1011.9 |
| 20260904173025 | 88 | 311 | 0.0 | 3.0 | 0.00 | 0.18 | 0.18 | 5 | 1011.9 |
| 20260904170025 | 88 | 0 | 0.0 | 0.0 | 0.00 | 0.18 | 0.18 | 5 | 1012.1 |
| 20260904164525 | 87 | 0 | 0.0 | 0.0 | 0.00 | 0.18 | 0.18 | 5 | 1012.0 |
| 20260904163024 | 87 | 180 | 0.0 | 2.0 | 0.00 | 0.18 | 0.18 | 5 | 1012.1 |
| 20260904160025 | 86 | 262 | 0.0 | 5.0 | 0.00 | 0.18 | 0.18 | 5 | 1012.1 |
| 20260904153025 | 85 | 198 | 0.0 | 4.0 | 0.00 | 0.18 | 0.18 | 6 | 1012.4 |
| 20260904150025 | 85 | 0 | 0.0 | 0.0 | 0.00 | 0.18 | 0.18 | 6 | 1012.6 |
| 20260904144525 | 83 | 247 | 1.0 | 8.0 | 0.00 | 0.18 | 0.18 | 6 | 1012.4 |
| 20260904143025 | 83 | 332 | 0.0 | 4.0 | 0.00 | 0.18 | 0.18 | 6 | 1012.4 |
| 20260904134525 | 80 | 270 | 0.0 | 4.0 | 0.00 | 0.18 | 0.18 | 7 | 1012.1 |
| 20260904133025 | 79 | 0 | 0.0 | 0.0 | 0.00 | 0.18 | 0.18 | 7 | 1012.3 |
| 20260904130024 | 78 | 67 | 0.0 | 1.0 | 0.00 | 0.18 | 0.18 | 8 | 1012.3 |
| 20260904124525 | 77 | 0 | 0.0 | 0.0 | 0.00 | 0.18 | 0.18 | 8 | 1012.1 |
| 20260904123024 | 76 | 0 | 0.0 | 0.0 | 0.00 | 0.18 | 0.18 | 8 | 1012.1 |
| 20260904120025 | 74 | 0 | 0.0 | 0.0 | 0.00 | 0.18 | 0.18 | 9 | 1012.0 |
| 20260904113025 | 72 | 0 | 0.0 | 0.0 | 0.00 | 0.18 | 0.18 | 9 | 1011.9 |
| 20260904105354 | 72 | 0 | 0.0 | 0.0 | 0.00 | 0.18 | 0.18 | 9 | 1011.3 |
| 20260904103854 | 71 | 0 | 0.0 | 0.0 | 0.00 | 0.18 | 0.18 | 9 | 1011.3 |
| 20260904100854 | 72 | 0 | 0.0 | 0.0 | 0.00 | 0.18 | 0.18 | 9 | 1011.3 |